GFSWCAN_500_spd_057.txt.gz
Wind_Speed
70 70 61 64 60 57 54 49 47 45 43 40 38 36 34 32 31 29 28 27 26 25 25 24 25 25 25 24 25 25 25 25 26 27 28 28 28 28 28 27 26 26 27 26 28 31 33 34 37 39 42 46 50 54
74 71 60 67 62 59 57 52 49 47 45 43 40 37 35 34 33 31 28 29 28 25 24 21 21 21 21 22 22 22 23 25 27 27 26 25 26 25 26 25 24 23 25 30 32 36 37 39 41 43 47 52 50 44
73 69 65 67 65 62 59 56 52 49 46 43 40 38 36 34 33 30 28 26 24 24 23 21 20 19 18 21 20 19 20 21 22 23 23 23 23 24 24 24 25 26 30 34 38 38 40 42 44 48 48 45 47 49
77 71 60 68 69 65 61 57 54 51 47 44 40 36 35 33 31 28 27 25 24 25 26 22 22 20 20 19 19 18 20 21 21 21 21 22 23 25 27 29 28 31 36 39 41 41 44 44 44 42 45 49 51 54
83 71 64 67 72 70 64 59 56 53 48 44 40 38 36 32 30 29 29 27 26 24 23 22 19 17 17 18 19 20 20 19 20 22 23 25 26 29 29 30 29 35 38 42 41 41 41 40 43 48 50 52 54 56
90 71 63 67 71 71 64 61 58 56 50 46 43 41 37 36 34 32 32 29 26 24 22 22 17 17 18 19 19 20 20 20 22 23 23 23 24 30 32 32 34 38 43 43 41 40 41 44 48 51 52 54 56 57
72 65 70 69 71 70 66 63 61 57 53 49 44 41 39 37 36 34 32 28 27 24 22 20 16 16 19 19 19 20 20 21 22 21 22 24 26 32 34 36 39 41 39 39 41 42 44 48 50 52 55 57 58 58
72 67 75 66 65 69 69 65 62 58 54 50 47 43 39 37 37 35 33 31 30 27 24 22 18 20 21 21 20 21 22 23 24 25 26 28 31 34 37 41 45 44 42 42 45 47 49 50 52 55 57 58 58 59
78 69 77 75 70 65 70 68 63 60 56 53 48 44 42 42 39 36 36 35 33 31 28 25 24 25 24 24 25 25 27 28 26 27 31 34 35 36 42 46 46 43 43 45 48 49 49 51 54 56 56 57 58 61
74 72 71 78 71 66 64 70 67 62 58 55 50 49 43 41 38 39 39 38 36 35 32 29 28 26 28 28 28 29 30 32 32 31 36 36 34 37 42 44 44 43 45 47 46 49 52 53 54 56 57 60 61 59
70 68 73 80 72 62 60 65 68 64 61 57 53 51 42 41 42 43 42 40 39 37 35 32 33 33 31 30 30 32 33 34 35 35 38 40 37 39 42 42 45 45 44 45 48 51 53 55 55 56 59 59 59 57
77 63 62 75 73 69 65 61 64 62 58 55 52 46 43 44 47 45 44 42 40 37 33 33 34 37 34 34 35 35 37 39 40 41 44 43 39 41 42 42 43 44 45 47 49 51 52 52 54 57 57 57 53 45
73 63 61 71 70 67 65 62 58 61 59 55 52 49 48 51 50 52 46 40 33 30 33 36 36 36 36 36 37 38 40 39 40 43 44 40 41 42 42 43 44 45 48 50 51 49 49 53 55 57 60 55 45 38
71 63 61 63 66 63 60 59 59 63 61 58 55 53 54 55 54 47 40 33 33 36 35 34 31 30 32 34 36 37 37 38 40 40 40 41 42 41 43 45 46 49 50 50 47 48 51 52 55 59 52 45 40 37
65 56 61 58 57 58 59 57 62 62 60 59 55 55 55 52 48 40 37 35 35 34 33 32 30 29 30 32 32 32 33 37 38 40 39 41 41 43 46 48 50 50 50 47 48 50 51 55 57 51 39 38 38 36
60 60 57 57 53 55 55 56 59 58 59 58 57 55 50 48 46 41 38 36 37 35 34 32 30 29 30 32 29 29 34 36 38 37 40 41 44 48 50 51 49 48 46 47 50 52 55 57 48 37 36 38 36 34
66 65 59 56 56 55 57 59 60 62 59 56 52 52 50 47 45 45 44 42 38 34 32 32 30 30 31 28 27 29 34 37 37 40 39 42 46 51 51 49 47 45 47 51 54 55 54 43 36 35 34 33 32 33
65 60 58 60 60 52 53 58 61 60 56 53 48 49 49 46 45 43 42 40 38 37 35 32 32 31 28 27 30 36 36 36 39 40 40 44 51 51 49 47 45 48 51 54 55 50 39 36 36 34 33 31 31 31
71 62 57 58 58 55 54 59 61 59 54 51 47 48 50 49 47 43 42 41 41 38 34 33 32 27 28 32 35 34 35 39 40 42 45 50 50 49 47 47 48 51 54 55 48 38 34 37 36 33 32 31 32 33
65 60 59 58 58 53 50 56 59 56 50 47 46 49 47 46 46 43 42 43 41 37 33 31 29 30 33 34 31 35 38 41 44 48 49 49 48 46 46 48 51 53 54 45 36 33 35 37 36 34 34 35 32 32
63 60 63 65 60 55 49 54 54 48 45 46 47 46 46 44 42 41 41 41 36 31 30 29 32 34 29 29 33 36 39 43 46 47 47 46 46 45 48 52 54 53 42 32 31 35 37 35 36 36 36 34 31 30
67 64 59 59 59 58 52 50 50 45 42 44 45 43 38 36 34 37 41 37 32 29 28 28 28 26 29 32 35 38 43 44 44 46 46 44 44 47 51 53 49 39 30 31 34 34 33 34 34 33 29 25 26 28
59 59 59 59 58 57 55 56 53 47 43 42 40 37 33 31 33 35 36 33 30 30 30 26 26 29 31 35 38 40 43 45 44 44 44 44 46 49 52 47 35 29 30 32 32 31 32 32 31 28 25 23 24 22
61 60 59 59 56 55 56 53 51 50 47 43 35 30 30 29 32 35 35 32 30 32 26 27 28 31 34 38 40 44 46 44 44 44 43 46 50 51 46 34 28 28 30 32 30 30 32 32 31 29 25 23 23 22
55 56 56 55 55 55 56 53 50 48 45 40 36 35 31 32 35 35 34 32 32 28 29 30 32 35 39 41 44 46 44 43 43 43 45 48 50 44 31 29 26 29 29 28 31 33 33 32 31 28 24 22 22 21
58 56 54 51 51 54 54 51 47 44 42 40 37 31 32 33 33 32 31 31 29 29 31 34 37 40 43 46 45 42 41 41 42 43 46 46 38 29 28 29 27 25 27 30 35 37 35 32 28 24 20 17 18 18
57 55 52 51 50 47 45 45 43 42 39 37 33 33 34 34 32 30 29 28 27 30 34 37 40 43 44 42 40 38 38 40 41 44 41 30 27 28 28 23 23 27 29 34 35 31 29 24 21 20 17 15 15 17
46 47 45 42 44 44 39 37 40 45 39 34 33 34 33 32 29 28 26 29 32 35 38 39 40 40 39 39 36 37 39 40 42 36 28 27 27 22 19 21 25 29 32 33 29 26 22 18 17 15 14 14 15 18
35 38 38 37 36 36 38 41 38 33 31 32 33 32 29 28 25 28 31 33 35 35 37 39 38 38 37 35 36 38 39 39 33 26 25 24 21 18 20 23 27 29 29 26 23 21 19 16 15 14 14 16 17 18
21 28 32 33 35 35 34 33 31 30 29 27 26 27 28 28 30 32 31 30 31 35 36 34 33 34 34 35 36 38 35 29 23 22 21 19 18 18 21 24 26 24 23 22 21 18 17 16 15 15 16 15 14 13
26 29 32 34 30 29 26 24 22 22 24 27 28 30 32 32 33 31 30 31 35 34 32 33 35 35 34 34 35 31 27 22 21 19 18 18 19 19 21 23 25 21 19 18 18 18 17 17 16 16 16 15 14 12
30 27 25 22 22 24 25 25 26 27 28 30 29 32 33 33 32 31 29 31 32 33 35 35 33 32 32 31 29 24 22 21 20 21 21 22 22 21 21 22 24 20 18 17 17 18 18 18 18 17 17 16 15 14
24 23 21 19 21 23 24 24 24 24 26 28 30 31 31 32 30 28 31 35 35 35 34 32 32 32 30 27 24 22 20 19 20 21 23 23 23 22 21 21 23 21 19 18 18 19 20 20 20 19 18 17 17 17

GFSWCAN_500_spd_060.txt.gz
Wind_Speed
81 86 77 63 70 59 55 58 60 56 52 49 45 41 38 35 33 30 29 27 25 24 23 22 22 22 22 22 21 21 21 21 21 22 22 23 24 24 24 24 24 26 28 28 31 33 35 37 38 41 43 44 47 48
89 91 84 75 71 69 60 61 62 59 56 52 48 45 41 38 36 34 32 30 28 26 25 25 24 23 22 20 19 19 18 19 21 21 20 20 20 20 21 21 25 25 28 30 32 35 37 40 44 45 46 44 42 42
87 90 91 77 64 71 60 63 64 62 60 56 51 48 45 41 39 37 36 33 30 28 26 23 22 21 21 21 18 18 19 19 18 17 18 18 18 18 20 21 24 26 28 31 33 35 39 41 44 44 42 42 45 49
88 89 83 76 67 70 61 65 65 64 62 58 54 51 47 43 41 38 37 34 31 27 26 22 21 20 20 20 19 19 18 18 17 17 16 17 18 16 18 19 20 25 29 34 35 39 43 44 47 44 44 46 50 54
94 95 85 86 66 69 60 67 67 66 64 60 56 52 49 44 42 40 39 34 30 27 23 20 19 15 15 16 17 17 17 17 16 15 16 16 15 15 16 17 19 29 32 35 37 41 45 47 48 46 47 51 53 54
97 96 90 86 64 68 67 70 67 66 64 61 58 54 50 46 44 42 38 33 28 26 25 24 20 18 16 16 17 18 18 16 15 14 12 13 16 20 21 22 23 31 37 41 43 47 48 49 49 50 53 55 55 55
97 99 97 98 66 63 73 73 69 66 64 61 58 55 51 47 46 42 37 31 30 30 28 25 21 17 15 16 16 18 18 18 16 17 17 18 22 24 27 29 34 37 41 44 46 48 50 51 51 52 55 55 55 53
95 101 100 95 65 53 73 75 70 67 64 61 59 56 52 49 46 43 37 35 33 33 31 28 22 21 20 19 18 19 20 21 21 21 20 22 25 28 31 34 37 41 43 46 46 48 50 51 52 53 53 52 51 51
94 98 96 80 60 49 71 73 72 69 67 63 60 57 54 51 47 41 38 37 37 36 35 28 25 25 26 23 22 23 24 24 25 25 28 30 29 31 35 38 42 46 46 45 46 50 50 49 51 51 51 50 49 52
100 99 97 71 62 50 69 78 74 70 67 64 62 59 57 52 45 43 42 41 41 39 37 32 29 28 28 28 28 29 30 29 28 27 32 31 29 33 38 41 45 46 43 44 47 48 49 51 52 52 52 50 53 56
94 97 88 60 53 49 71 79 77 76 67 65 65 62 55 51 47 46 45 45 43 42 37 31 31 32 32 31 31 33 33 33 34 33 35 35 33 38 40 41 43 40 41 47 49 51 52 51 52 52 50 54 56 59
93 90 83 54 55 52 73 74 76 75 69 65 62 58 55 55 52 51 50 48 45 42 37 29 30 33 35 35 35 36 36 37 39 37 38 37 36 42 40 41 39 41 45 50 51 52 50 51 51 49 52 55 58 59
83 92 75 67 67 53 74 74 74 74 68 65 65 62 60 58 57 56 53 47 46 32 24 28 33 35 33 35 37 38 38 40 40 40 37 35 41 40 40 39 40 43 49 51 51 51 51 51 49 51 55 60 62 53
87 84 71 63 55 52 74 75 75 75 73 71 67 65 63 61 58 55 53 45 35 29 31 36 36 31 31 32 34 34 35 36 37 33 31 37 39 38 36 39 42 47 51 52 52 50 50 49 52 56 60 62 53 41
98 80 58 59 53 50 60 73 75 74 70 69 66 64 60 58 56 54 48 43 37 33 36 36 34 33 31 33 31 30 32 34 30 31 36 38 35 34 37 41 45 50 51 53 52 51 50 52 55 58 61 50 42 39
89 85 57 53 53 49 55 63 74 71 73 68 62 61 58 58 54 49 45 40 38 37 36 36 34 32 31 32 28 28 32 30 33 36 37 34 33 37 41 44 49 51 53 53 51 50 52 56 58 59 50 41 39 36
100 82 56 46 48 51 57 61 67 73 74 65 60 60 55 52 48 46 45 41 39 39 38 37 37 32 33 29 26 28 31 35 34 35 33 34 37 41 42 48 52 54 54 51 51 52 55 58 59 49 39 37 39 35
85 75 73 67 54 52 55 61 62 62 59 58 58 55 53 49 47 45 43 41 37 38 39 38 37 34 29 28 30 34 34 34 35 31 33 37 41 41 46 51 54 55 53 51 52 55 58 57 47 39 37 39 38 34
85 74 70 64 59 58 59 57 57 58 56 57 54 53 52 50 49 47 44 42 39 38 35 36 37 33 30 33 33 32 32 32 30 32 36 39 40 45 50 53 54 53 51 52 54 58 57 48 39 37 39 36 37 35
74 65 62 53 48 49 54 55 55 56 57 55 51 53 54 50 47 43 42 41 40 36 36 37 38 35 31 31 31 32 30 31 32 35 36 39 44 47 52 52 51 51 51 54 58 56 45 38 37 38 35 35 36 35
73 56 53 51 50 51 53 56 55 55 55 54 54 54 52 48 46 42 38 38 37 37 41 42 37 32 30 29 30 32 32 32 33 35 39 43 46 51 52 50 50 51 53 57 56 44 37 37 37 34 34 32 32 30
65 61 58 56 55 57 55 50 51 51 49 50 53 51 47 45 46 43 37 35 35 40 43 41 34 30 27 28 30 31 32 31 33 38 41 45 51 52 51 49 50 53 56 56 42 35 35 37 34 33 34 33 32 28
57 59 58 58 57 58 57 51 47 43 43 47 51 50 44 41 41 39 36 31 32 38 37 33 31 29 28 31 32 32 30 32 37 40 43 49 52 50 49 49 51 55 54 41 34 35 35 32 34 36 36 33 31 29
58 62 58 56 59 62 60 54 45 38 40 44 47 45 41 39 38 34 28 27 31 29 26 28 29 30 32 34 33 32 32 36 40 43 48 51 51 50 48 48 53 53 41 37 36 31 31 34 39 39 35 30 28 27
63 57 57 57 56 58 59 53 45 41 39 43 42 37 34 33 31 25 22 24 23 24 26 28 29 30 31 32 35 34 36 39 42 47 48 48 48 47 47 50 51 40 37 31 29 32 35 39 37 33 29 24 23 20
54 59 55 57 60 59 56 53 47 41 37 40 41 39 35 32 30 22 20 21 23 26 28 29 30 31 33 36 36 36 39 42 45 48 46 46 45 45 47 50 39 34 27 29 32 36 36 34 31 27 24 21 18 16
50 54 54 55 53 52 50 48 44 43 43 41 39 38 37 34 28 24 23 24 26 28 28 27 29 32 35 36 36 37 41 44 45 45 46 43 42 45 47 37 31 25 26 30 32 32 30 28 26 23 20 17 15 15
52 50 51 51 49 45 42 43 41 38 36 37 34 32 31 30 29 25 24 27 28 27 27 29 31 34 34 35 37 41 44 44 46 42 40 39 42 43 35 30 22 23 27 28 27 27 26 23 22 19 18 17 18 19
51 50 51 49 47 43 40 34 31 33 35 33 31 30 31 30 29 27 25 26 28 30 31 33 35 34 35 38 41 43 43 40 37 37 38 39 39 33 29 24 21 23 25 25 24 24 24 22 20 19 18 18 18 18
43 45 44 43 42 39 34 32 31 29 28 28 28 30 31 28 26 25 26 29 31 32 33 34 35 37 38 40 40 39 37 36 37 36 38 35 31 27 24 23 22 23 23 24 22 21 21 21 20 19 19 18 17 17
40 42 37 36 35 32 32 30 28 26 24 24 26 27 27 27 26 29 31 31 31 32 33 34 36 38 39 38 36 37 38 37 36 37 34 28 25 23 25 25 25 24 23 23 21 20 21 21 21 20 20 19 18 17
24 24 23 21 23 24 25 25 24 25 26 26 26 26 27 28 28 29 29 30 31 32 36 38 39 38 38 39 39 37 36 36 36 34 26 23 22 22 24 25 26 25 23 23 23 22 22 22 21 21 20 19 18 17
22 24 24 24 22 22 23 25 26 28 28 28 28 26 25 25 26 28 29 31 34 36 38 39 39 39 38 37 36 36 36 36 34 27 23 21 22 23 24 24 24 24 23 21 22 23 22 23 23 22 22 20 19 19

GFSWCAN_500_spd_063.txt.gz
Wind_Speed
51 44 43 60 84 89 56 67 65 60 59 56 51 48 45 41 38 36 35 33 27 24 23 20 19 18 17 17 18 18 18 17 17 17 16 16 17 18 17 16 16 16 17 18 17 19 21 23 28 33 38 42 44 45
46 42 44 66 79 87 55 75 69 63 63 60 55 51 49 45 41 39 37 32 30 28 25 23 22 21 20 20 19 19 17 17 16 15 16 15 15 15 14 13 15 14 14 15 18 21 26 30 34 39 42 45 47 49
44 40 48 76 85 84 63 73 75 68 68 64 59 54 51 48 45 42 39 36 33 30 29 27 25 24 22 21 19 19 19 17 16 15 15 14 14 12 12 12 10 12 16 18 21 25 30 34 38 41 44 47 49 48
42 40 49 74 90 82 76 83 74 70 69 66 63 57 54 51 48 45 41 39 36 33 32 28 26 25 24 22 21 19 19 18 17 15 14 13 11 7 7 6 11 18 20 22 26 30 36 39 43 45 48 50 50 49
40 41 53 80 86 75 76 80 75 74 71 67 65 59 55 53 50 46 44 41 38 36 33 31 29 26 24 22 19 17 17 17 17 15 14 13 11 11 10 8 13 22 25 28 32 36 40 44 47 48 50 51 51 51
40 43 54 83 94 80 81 81 78 75 71 68 67 61 58 55 53 49 47 46 41 38 34 32 29 25 22 18 17 16 16 16 15 14 14 11 14 15 11 12 19 26 29 33 37 41 44 46 48 49 51 51 50 51
41 45 55 84 99 82 88 85 76 73 68 67 68 63 60 57 56 52 48 41 40 38 36 34 32 28 24 20 19 18 16 16 13 13 12 15 18 20 18 19 28 30 33 36 40 45 46 47 47 50 51 50 50 52
41 47 62 80 94 77 83 82 76 70 67 67 67 66 63 61 58 54 48 45 43 41 38 37 31 27 24 22 22 21 19 19 17 16 16 19 23 25 24 24 31 32 36 40 44 47 46 45 48 50 50 50 50 52
43 49 60 90 99 79 70 74 78 76 71 71 67 67 65 63 58 52 49 47 45 44 42 35 30 26 27 26 25 25 24 22 21 20 21 24 23 23 27 33 35 36 40 43 47 46 45 46 49 50 51 50 51 52
43 51 69 87 95 75 55 57 63 75 71 72 67 66 66 62 57 54 52 50 49 48 44 37 31 29 29 29 29 30 29 28 26 25 28 25 23 27 35 37 39 40 42 45 45 43 45 48 50 52 50 51 52 52
44 54 77 87 97 76 44 44 52 70 72 75 72 65 62 59 56 56 55 54 53 50 43 36 31 28 28 30 32 33 33 32 32 28 31 28 25 32 37 40 40 39 41 44 42 43 47 50 53 52 51 52 52 52
44 52 64 95 102 77 54 49 51 76 72 72 70 65 62 61 60 60 60 58 55 51 41 32 28 28 28 31 33 35 37 36 35 32 32 31 29 38 39 39 37 38 42 41 42 45 49 53 53 52 52 52 52 55
45 50 66 89 100 68 58 53 51 75 73 73 70 65 61 60 62 64 63 59 55 44 30 23 27 29 32 35 34 35 35 35 35 36 31 26 33 36 36 36 36 39 41 41 44 49 53 54 53 51 51 51 53 57
46 51 61 71 88 60 46 45 53 74 75 73 70 69 66 64 66 66 62 54 48 35 26 29 32 34 36 33 34 32 33 33 33 28 25 30 33 33 35 37 36 40 40 43 47 52 55 55 53 51 51 55 58 55
46 52 62 67 60 65 54 46 52 77 74 75 74 70 68 69 67 65 60 52 41 35 33 34 37 37 35 36 33 31 31 32 27 27 30 32 31 32 35 35 38 39 41 46 51 54 55 54 52 53 56 58 53 41
50 58 63 70 61 64 57 51 54 68 73 71 69 70 71 70 66 60 53 46 41 39 38 38 37 36 35 34 30 29 29 27 28 32 32 31 32 34 35 37 37 41 44 50 54 56 55 53 54 55 59 52 42 37
58 67 67 86 79 73 57 55 57 65 75 75 72 71 70 69 63 55 49 44 43 42 39 37 34 35 36 35 31 27 28 30 29 29 32 32 34 35 36 36 39 42 47 53 55 55 54 55 56 59 52 42 37 39
64 71 87 89 70 61 53 53 58 72 78 75 71 69 67 62 55 51 48 46 44 39 35 34 32 33 34 31 28 30 30 27 28 31 32 34 34 33 34 37 40 45 50 56 57 57 56 56 59 55 43 37 38 35
70 80 80 74 62 63 63 63 59 71 78 77 72 68 66 61 55 51 48 45 41 38 36 34 34 29 28 29 30 29 27 27 29 31 33 34 32 33 35 38 43 48 55 58 57 56 55 59 56 43 37 38 35 32
73 88 79 71 61 61 61 57 63 73 72 72 74 72 66 59 57 53 47 42 39 37 35 31 27 27 28 26 25 26 28 29 30 31 33 32 32 35 37 41 46 52 56 57 55 53 58 55 45 39 38 34 32 34
92 85 65 78 60 59 49 46 52 61 64 68 69 67 65 58 53 50 47 43 39 35 31 29 30 29 25 25 26 28 29 29 29 32 31 31 33 36 39 44 50 54 54 53 51 56 55 48 41 35 34 35 38 39
70 83 58 55 51 49 47 51 58 63 64 67 66 66 63 58 49 45 44 42 38 36 33 30 27 25 26 28 29 30 29 28 30 30 30 32 35 38 42 46 52 52 51 48 53 54 47 40 35 36 38 41 40 36
60 66 67 61 61 57 56 58 60 61 58 56 56 57 54 51 51 48 43 40 39 38 35 27 25 24 25 26 28 30 28 29 30 30 32 34 36 40 45 50 50 51 50 50 52 46 38 37 38 41 41 37 34 30
81 72 58 57 60 58 56 55 58 58 52 47 45 49 50 48 46 45 41 36 36 36 31 28 24 24 26 27 29 28 28 31 30 33 35 37 39 43 47 49 49 48 46 49 45 37 35 37 39 39 35 32 29 25
76 61 61 59 63 57 53 52 52 53 47 41 40 43 45 45 44 39 32 32 33 28 27 25 25 26 27 27 27 28 29 29 31 34 36 39 41 45 47 48 46 43 45 45 37 32 32 34 35 33 29 26 24 21
63 66 55 53 59 55 49 48 46 45 42 39 35 34 37 41 42 37 31 31 26 25 24 25 23 23 26 28 28 29 30 30 33 36 38 39 44 46 46 45 42 41 43 38 30 29 29 29 31 28 25 22 21 20
60 64 51 51 53 50 47 47 46 43 41 39 36 33 32 37 39 33 30 28 26 25 24 22 22 24 27 29 29 30 30 33 35 36 39 43 44 43 43 43 39 40 39 31 25 27 26 27 27 26 24 23 22 21
48 43 48 52 50 46 46 46 45 44 42 37 31 26 25 32 34 28 25 26 26 23 20 21 22 26 28 28 30 31 32 33 35 38 42 42 41 42 41 39 38 38 33 27 23 26 25 24 24 23 23 23 23 22
42 46 49 49 46 43 41 42 44 44 41 37 32 29 26 27 29 29 28 29 28 24 22 24 26 28 28 29 31 31 31 34 38 40 40 39 40 39 38 36 37 34 30 26 23 24 25 23 22 21 23 24 22 21
44 49 47 46 43 40 39 39 40 39 37 35 29 26 25 26 26 29 28 27 26 25 26 28 28 29 31 32 31 31 33 37 40 40 39 39 37 36 35 35 34 30 28 26 24 24 25 25 22 20 21 23 21 19
39 43 42 41 40 39 39 39 37 35 32 29 29 30 29 28 29 28 28 29 30 30 29 28 29 31 31 30 31 34 38 39 39 39 37 34 34 33 33 32 29 27 26 26 25 25 24 24 22 20 20 21 21 19
35 35 38 39 39 39 38 38 38 35 32 29 27 27 27 28 29 31 33 33 31 29 29 29 29 29 30 33 35 38 40 40 39 37 35 33 33 32 30 28 26 25 25 26 26 25 23 22 22 20 20 20 20 20
29 29 32 34 34 36 36 35 33 30 29 29 29 29 30 31 31 30 29 28 28 28 27 28 30 32 35 38 39 40 41 41 38 35 34 34 32 29 27 25 24 23 24 26 27 25 22 21 21 21 21 21 21 21

GFSWCAN_500_spd_069.txt.gz
Wind_Speed
61 62 62 58 56 51 49 50 51 54 52 57 57 55 50 60 59 58 55 51 49 44 42 39 34 30 28 27 26 22 21 18 18 18 19 19 20 18 19 17 16 15 14 14 14 13 13 13 16 21 26 31 37 42
64 63 58 56 53 51 49 51 52 51 54 57 51 47 56 65 61 61 56 52 50 48 43 41 37 34 32 31 28 27 19 19 19 19 20 19 18 18 17 15 15 14 15 14 14 14 15 18 22 26 32 38 40 45
60 57 56 53 51 49 51 52 50 51 52 51 45 47 67 56 63 61 57 54 51 48 46 44 39 37 36 36 24 22 20 20 21 20 18 18 18 18 17 16 17 15 15 15 16 16 20 23 27 33 37 41 46 51
57 55 53 52 52 51 50 49 49 52 51 41 43 54 60 58 65 62 57 57 52 50 50 45 43 42 40 31 26 24 24 22 21 20 20 20 20 19 18 18 17 13 16 16 18 21 24 27 33 38 41 45 50 56
53 51 52 51 50 48 48 47 50 50 47 37 50 56 51 54 64 61 59 57 54 52 52 47 46 44 38 31 29 27 25 22 21 22 22 22 21 21 21 19 14 19 18 21 23 24 27 32 36 41 45 49 54 58
50 51 49 46 44 44 46 48 50 48 38 37 60 53 57 63 62 61 60 59 54 53 50 51 47 44 37 33 31 28 25 22 22 24 23 22 21 22 23 20 18 26 26 27 27 29 33 36 40 46 49 53 56 58
50 47 42 43 43 45 46 49 50 45 36 51 61 53 53 62 63 61 62 58 55 55 54 52 48 43 38 34 31 28 24 23 25 24 22 23 24 26 22 14 25 29 32 32 33 36 38 41 45 49 52 54 56 57
47 42 41 43 44 46 46 49 44 41 36 59 56 58 58 64 66 63 61 59 57 57 56 55 50 45 38 34 30 26 24 25 25 23 23 25 26 27 16 21 29 31 33 34 37 39 41 44 46 49 51 53 53 55
42 42 43 45 45 45 48 45 41 39 40 61 56 60 60 68 68 64 61 60 59 60 60 54 48 43 39 33 30 29 29 28 26 25 25 28 25 19 24 28 30 31 34 36 38 40 43 44 44 47 51 51 54 56
43 44 45 43 43 47 44 42 38 42 47 64 61 57 62 72 65 63 61 63 63 64 61 54 47 44 39 35 32 31 31 31 28 24 26 27 20 23 32 31 31 31 35 37 40 43 42 41 44 47 49 52 54 58
46 45 43 42 46 44 40 39 40 43 51 65 64 56 57 66 67 65 62 68 71 68 63 56 50 44 40 37 34 35 34 32 30 25 28 25 18 27 32 32 34 35 37 39 38 39 40 41 44 46 49 51 56 62
45 44 43 43 43 38 39 38 43 43 54 71 62 58 55 68 73 72 74 75 73 69 62 55 49 45 42 39 38 34 34 34 32 27 27 23 23 31 33 34 35 34 35 35 36 37 39 41 43 46 48 54 61 63
44 43 42 40 38 39 39 44 43 44 54 64 67 57 66 74 77 82 83 78 74 67 59 52 47 45 41 39 37 35 36 35 31 28 22 20 31 29 29 30 30 31 32 34 35 37 38 40 43 46 52 59 63 63
42 40 38 38 37 37 45 46 49 49 51 60 69 59 69 81 83 84 79 73 67 62 54 48 45 41 38 36 36 35 35 34 31 23 17 27 28 26 26 27 28 30 30 33 35 35 37 40 44 50 56 61 63 59
41 40 39 37 37 44 49 50 52 48 47 64 64 62 77 82 84 80 75 70 66 55 48 43 42 40 38 39 39 37 35 32 22 18 24 27 23 24 28 26 28 30 32 33 33 35 38 42 47 52 59 61 61 56
42 46 41 36 44 48 52 51 51 47 50 65 66 74 79 82 83 77 72 67 57 51 48 45 44 43 41 42 40 36 32 22 19 23 24 23 22 27 27 28 29 31 32 32 34 36 39 44 50 56 60 62 56 50
49 39 35 43 46 51 52 51 49 49 57 70 66 71 73 76 77 71 66 55 53 51 47 46 45 44 43 42 36 29 21 21 26 27 25 25 27 27 28 28 30 31 32 32 35 36 41 46 52 57 60 58 52 44
43 37 43 47 50 51 45 50 49 51 66 71 71 71 70 70 71 72 63 51 47 49 48 45 43 42 39 33 28 21 23 26 27 27 27 27 27 27 29 30 31 31 32 33 35 38 43 48 53 59 58 55 46 41
37 42 48 51 50 53 44 53 50 60 67 66 64 62 57 56 64 64 61 55 47 41 42 43 40 40 35 29 26 28 28 29 28 28 27 27 28 30 31 31 31 31 32 34 36 39 44 49 54 56 55 50 40 36
44 46 47 51 46 53 51 58 57 62 66 68 62 52 46 47 54 61 61 58 49 45 45 44 39 33 31 31 30 30 30 29 29 29 28 28 29 31 30 30 31 31 31 35 38 40 45 49 53 55 52 44 37 31
46 48 49 45 49 48 51 58 59 62 64 60 54 50 48 50 56 65 61 58 54 49 44 43 38 33 33 34 32 30 29 28 28 26 25 28 31 30 31 30 31 31 32 36 38 41 45 49 52 54 46 41 34 30
44 47 46 53 53 44 53 63 63 63 58 51 46 46 51 55 59 65 64 59 59 51 44 39 37 34 34 34 33 30 29 27 27 27 29 32 31 32 32 30 30 29 33 35 37 41 46 51 53 50 44 38 32 31
45 44 48 58 49 49 57 64 64 61 56 52 41 39 47 55 59 62 62 59 55 49 43 40 38 36 35 34 32 30 28 27 28 29 33 32 31 32 30 29 27 30 33 34 37 41 46 51 50 45 40 35 31 31
44 45 53 58 46 46 56 64 66 63 57 46 43 41 46 54 61 63 59 53 51 46 45 40 38 35 31 32 32 30 28 28 28 29 28 30 31 30 28 26 27 30 33 34 38 42 47 50 45 41 37 34 30 29
40 40 47 55 45 39 61 64 57 56 50 44 44 45 49 56 60 61 56 53 48 46 43 40 39 36 35 33 31 29 30 27 27 27 29 29 28 27 26 26 28 31 33 35 39 44 49 47 41 37 34 30 28 28
39 47 49 54 51 38 52 55 57 52 46 46 46 48 51 56 56 58 55 51 51 45 39 37 36 34 32 32 33 33 33 30 29 29 29 27 25 25 24 25 29 31 33 36 40 45 47 42 37 34 30 28 27 26
40 46 59 48 50 57 57 57 53 48 45 47 47 47 52 57 61 57 50 50 50 46 43 40 37 36 37 38 36 32 31 31 30 29 26 24 24 22 23 27 30 31 32 37 42 45 44 39 36 33 29 26 24 25
49 55 47 45 52 55 57 58 53 47 44 40 41 48 53 60 62 54 48 46 46 46 45 42 39 40 40 37 33 31 31 30 29 28 25 24 22 22 25 30 31 31 34 39 44 45 43 37 34 31 26 25 22 23
54 46 41 40 47 52 53 50 48 42 36 37 42 49 56 58 49 44 47 49 49 48 45 43 41 42 39 35 32 32 31 31 29 27 24 22 22 25 28 31 31 33 37 42 45 43 37 34 32 29 25 25 21 20
50 46 46 44 42 48 49 47 43 37 35 35 36 40 43 43 47 50 50 47 46 44 41 41 42 43 40 38 34 32 31 29 27 25 24 24 25 28 29 30 32 36 40 43 43 38 35 32 30 27 24 25 20 18
46 43 47 50 50 47 43 40 37 35 35 34 37 41 45 45 47 49 49 48 47 41 41 43 44 42 36 33 32 31 29 29 28 27 25 26 28 29 30 32 36 38 41 42 38 34 32 30 27 25 25 26 20 17
43 48 47 45 44 43 45 42 38 34 33 34 38 43 45 45 44 45 46 46 45 44 43 41 40 37 37 37 33 30 29 28 29 28 27 29 29 30 33 35 37 39 41 38 33 31 29 26 23 22 24 23 19 17
49 46 40 41 41 39 41 40 37 35 35 37 40 48 49 48 47 46 44 43 42 42 41 40 38 36 34 34 34 33 31 31 30 29 30 30 31 32 35 38 40 40 37 32 29 29 26 21 18 19 20 20 18 17

GFSWCAN_500_spd_072.txt.gz
Wind_Speed
58 57 55 53 54 54 52 51 51 51 47 44 41 43 43 44 47 49 45 52 52 50 49 51 41 40 37 34 29 25 26 24 23 20 18 16 17 18 21 20 19 18 19 17 18 16 15 13 13 17 19 24 29 35
57 55 53 53 55 53 54 54 54 52 46 43 41 43 46 43 47 51 50 57 56 54 55 52 44 42 39 37 31 30 28 27 25 23 18 17 19 19 19 18 18 18 17 17 18 15 14 15 18 20 25 29 34 41
54 54 55 55 55 56 56 56 53 49 43 40 40 45 46 47 50 54 57 54 53 56 57 54 44 45 42 39 35 34 32 29 26 19 17 19 19 19 19 19 18 19 18 19 18 17 19 19 22 25 29 35 40 45
53 53 54 54 54 55 53 50 46 44 41 38 44 45 45 48 53 56 49 45 55 56 58 54 49 47 44 42 37 36 34 32 22 20 18 19 20 21 21 19 20 18 21 20 19 21 21 24 26 29 33 40 44 50
52 54 54 53 50 49 47 47 42 42 40 44 45 45 45 50 51 44 39 49 45 57 60 57 52 47 46 42 39 40 35 26 22 22 20 20 19 24 24 22 17 21 22 20 20 23 25 24 29 35 39 43 48 53
51 50 49 49 46 46 44 42 40 39 41 40 41 42 46 50 39 39 40 48 49 55 60 56 52 50 47 43 41 40 33 27 24 25 22 20 20 24 23 21 18 24 24 21 24 26 27 30 34 40 43 47 51 54
49 47 44 44 42 42 41 40 40 40 40 38 39 42 46 45 41 42 53 47 53 55 60 56 55 51 48 46 43 40 34 28 27 25 23 20 22 25 22 17 24 27 27 29 29 29 31 35 40 43 47 50 50 52
46 45 43 42 41 41 42 41 40 39 38 37 40 42 42 36 46 53 49 43 30 56 58 56 57 53 48 46 43 40 34 30 28 25 22 21 21 25 20 21 25 28 29 30 33 35 37 38 43 47 49 47 48 51
43 44 45 43 42 43 42 40 39 40 39 37 40 43 38 39 46 45 40 35 34 56 61 56 54 50 49 46 42 39 33 31 28 25 20 21 21 19 22 25 24 25 27 28 30 35 38 42 45 46 44 46 48 50
45 45 45 43 43 43 41 39 39 39 40 40 42 41 39 50 46 44 47 37 35 57 61 57 55 52 50 45 43 38 35 33 30 24 23 23 17 18 26 26 24 24 27 29 32 36 40 40 41 41 43 45 47 50
46 45 44 43 43 42 41 40 40 40 40 41 41 38 42 56 48 37 54 46 43 58 62 56 55 50 49 47 41 38 36 35 30 25 25 21 12 21 28 27 26 27 29 30 33 36 37 38 39 41 42 44 47 52
46 46 45 43 43 42 41 42 41 40 38 34 31 37 42 53 53 49 60 55 56 60 61 56 54 54 50 46 43 40 38 35 32 25 24 15 14 23 27 24 26 28 29 29 32 34 35 36 38 39 41 44 49 55
48 48 45 43 43 43 42 41 40 40 37 37 39 45 43 49 55 57 68 65 62 64 60 57 53 55 49 47 43 40 38 35 30 27 18 12 19 25 23 23 26 27 27 29 31 33 34 36 37 39 41 45 52 58
46 44 44 44 43 42 41 41 42 41 37 42 47 50 47 53 59 66 68 66 59 59 57 51 51 51 48 45 42 39 37 32 32 23 12 16 22 24 23 25 27 26 27 29 31 33 34 35 38 39 42 48 54 60
43 45 44 42 41 41 42 43 42 39 43 46 56 55 59 60 61 61 64 69 61 56 56 53 51 51 48 47 42 39 36 36 25 13 15 18 22 24 24 26 27 26 27 29 31 32 34 36 39 40 45 50 56 60
41 43 44 44 44 43 43 39 40 43 46 56 60 57 66 63 64 61 61 67 64 57 55 55 53 52 50 49 44 41 37 24 14 15 18 20 22 21 23 26 26 26 28 29 30 32 35 37 38 41 47 52 57 60
47 46 46 47 45 44 42 44 44 48 54 61 56 52 56 62 59 60 59 62 64 62 54 54 54 52 49 47 42 34 21 17 20 21 21 22 22 22 24 26 26 27 29 30 31 32 35 37 40 43 48 52 57 58
43 41 43 43 45 45 45 47 47 50 62 59 53 47 49 53 53 53 56 61 63 59 55 53 52 51 47 37 24 18 18 19 20 24 24 22 21 23 24 26 27 29 30 30 31 33 35 38 40 45 49 53 56 55
35 39 41 46 47 47 42 45 51 49 60 57 47 45 38 50 49 53 57 61 59 59 56 52 53 50 42 29 24 26 26 24 26 26 25 23 24 24 24 26 29 29 29 31 33 33 35 37 41 45 49 53 54 51
41 44 47 46 42 41 44 48 55 53 53 57 49 41 40 46 44 49 57 62 60 57 57 59 51 41 33 31 33 31 28 27 28 28 26 25 26 26 25 28 28 28 29 32 32 33 35 37 41 45 49 52 52 49
43 45 47 48 44 44 45 49 53 55 48 48 44 40 43 48 44 53 59 61 61 60 55 48 42 41 36 31 31 33 32 31 30 28 26 26 26 25 27 27 26 28 31 32 31 32 35 37 42 45 48 52 50 45
44 46 46 45 45 48 52 49 51 44 43 35 35 40 46 51 48 53 57 62 61 57 53 47 43 41 39 30 31 33 32 32 29 26 25 25 25 26 29 27 28 29 31 29 30 31 34 37 42 45 47 50 48 42
41 42 44 45 47 46 47 44 48 41 38 43 42 46 47 54 52 54 61 64 62 56 51 46 43 40 38 35 33 30 32 32 28 27 25 26 28 28 28 28 29 29 28 28 29 31 34 37 42 44 46 50 46 39
41 37 46 42 49 46 46 47 42 39 42 44 38 50 58 57 54 62 65 64 61 57 52 47 41 37 36 36 34 32 31 29 28 26 27 30 27 26 25 27 27 26 27 27 28 31 34 37 41 44 46 46 43 37
45 44 52 47 48 47 44 45 46 42 44 47 45 45 53 54 61 64 64 61 59 59 56 51 41 38 36 35 33 33 31 30 28 28 29 27 25 25 26 26 25 26 27 27 29 31 34 37 41 44 45 44 39 34
43 53 47 45 45 44 45 41 38 41 45 45 46 47 51 56 60 64 62 58 58 57 55 50 43 39 36 35 33 33 32 30 29 29 29 26 25 26 25 24 25 26 26 27 30 31 34 38 41 43 43 42 38 32
39 42 47 36 38 47 37 34 39 43 44 47 51 47 50 57 62 62 60 59 56 54 51 51 48 44 40 39 38 37 33 30 29 31 29 29 28 28 25 24 26 25 26 29 30 32 34 38 42 42 42 39 35 30
32 37 34 46 50 47 25 31 44 49 51 52 46 44 51 57 58 56 55 55 53 54 52 52 50 47 45 41 40 37 33 32 32 31 31 30 29 28 25 25 26 25 27 30 30 32 35 39 42 42 41 37 33 28
39 37 28 41 46 53 36 32 38 47 48 45 42 45 50 53 52 49 52 54 55 55 53 50 48 47 44 42 37 32 32 31 33 32 30 29 28 26 25 25 25 26 29 30 31 33 37 40 43 42 38 35 31 26
29 31 28 36 45 41 37 42 42 45 46 42 40 41 42 43 44 47 51 53 54 52 50 46 44 42 40 38 32 30 31 33 32 30 29 29 28 26 25 25 26 29 30 30 32 34 37 41 41 38 35 32 29 26
32 27 31 39 35 35 45 47 47 45 41 38 37 36 36 41 46 49 51 51 50 47 43 44 45 44 40 37 36 36 35 32 31 31 30 30 27 26 26 26 29 30 30 31 33 34 38 39 37 34 33 30 26 25
32 41 41 32 32 41 47 45 41 41 41 38 34 35 38 44 49 52 52 51 50 48 48 44 41 38 37 40 41 37 34 32 31 31 28 27 28 28 27 28 30 30 31 32 33 36 37 35 33 31 29 26 23 22
38 43 38 33 42 46 43 41 43 43 37 33 32 33 36 40 43 46 48 48 47 46 45 41 38 38 39 38 35 34 33 33 32 31 32 31 30 28 28 30 31 31 32 32 34 36 34 31 29 28 25 21 19 18